Location: Liberec
(50.7830°N, 15.0500°E)
Time: 05:46:31
(UTC+02:00)

ISS - Pass Details

Date: 22 May 2021
Orbit: 417 x 422 km, 51.6° (Epoch: 13 June)

Event Time Altitude Azimuth Distance (km) Brightness Sun altitude
Rises 22:57:20 0° 281° (W) 2,367 0.7 -14.0°
Reaches altitude 10° 22:59:26 10° 281° (WNW) 1,503 -0.4 -14.1°
Maximum altitude 23:02:48 86° 7° (N) 426 -3.8 -14.4°
Enters shadow 23:05:17 17° 100° (E) 1,135 -1.9 -14.6°
